[[{"header":{"parameterUnit":"m.s-1","parameterCategory":1,"la1":30.2991,"la2":30.254,"lo1":-89.0895,"lo2":-89.0444,"dx":0.0017,"dy":0.0017,"nx":28,"ny":28,"refTime":"2022-12-23T15:00:00:Z","depth":0,"parameterNumber":2,"parameterNumberName":"U-component_of_WINDS"},"data":[0,0,0,0,0,0,0,0,0,0,0,0,0,0,0,0,0,0,0,0,0,0,0,0,0,0,0,0,0,0,0,0,0,0,0,0,0,0,0,0,0,0,0,0,0,0,0,0,0,0,0,0,0,0,0,0,0,0,3.6911,3.6911,0,3.6962,3.6963,3.6963,3.6934,3.6932,3.6931,3.6929,3.6979,3.6982,3.6985,0,0,0,0,0,0,0,0,0,0,0,0,0,3.6786,3.6789,3.6911,3.6911,3.6912,3.6962,3.6963,3.6963,3.6934,3.6932,3.693,3.6929,3.6978,3.6982,3.6985,0,0,0,0,0,0,0,0,0,0,0,0,0,3.6839,3.6789,3.6911,3.6903,3.6903,3.6962,3.6963,3.6963,3.6934,3.6932,3.693,3.6928,3.6977,3.6981,3.6985,3.7053,0,0,3.6998,3.6999,0,0,0,0,0,0,0,0,3.6836,3.6844,3.6904,3.6904,3.6904,3.6939,3.6937,3.6993,3.6935,3.6922,3.6929,3.6927,3.6968,3.6972,3.6987,3.7055,3.7057,3.6998,3.7,3.7002,3.7003,0,0,0,0,0,0,0,3.6833,3.6841,3.6931,3.6905,3.6905,3.6897,3.6902,3.6948,3.6956,3.6923,3.6921,3.6928,3.6967,3.6983,3.6987,3.7058,3.6998,3.7001,3.7004,3.7005,3.7186,3.7188,0,0,0,0,0,0,3.683,3.6838,3.6929,3.6932,3.6864,3.6901,3.6907,3.693,3.6956,3.6958,3.693,3.6926,3.6977,3.6983,3.6989,3.707,3.7002,3.7006,3.7008,3.7184,3.7187,3.7189,0,0,0,0,0,0,3.6827,3.6838,3.6927,3.6885,3.6896,3.6906,3.6932,3.6932,3.6948,3.6961,3.6962,3.6944,3.6975,3.6983,3.7038,3.7072,3.7008,3.7011,3.7181,3.7185,3.7188,3.7233,0,0,0,0,0,0,3.6824,3.6837,3.6863,3.6886,3.6898,3.6975,3.6934,3.6935,3.6955,3.6951,3.6974,3.6976,3.6974,3.7032,3.7042,3.7076,3.7014,3.7178,3.7183,3.7187,3.7229,3.7238,3.7246,0,0,0,0,0,3.6819,3.6873,3.6865,3.6876,3.6931,3.6977,3.6984,3.6982,3.6958,3.6984,3.6993,3.6975,3.7067,3.7038,3.7048,3.7085,3.7176,3.7181,3.7187,3.7225,3.7236,3.7246,0,0,0,0,0,0,3.6853,3.6876,3.6867,3.693,3.6952,3.6972,3.7005,3.6994,3.7023,3.7018,3.7013,3.7018,3.7075,3.7085,3.7053,3.7152,3.7117,3.7125,3.7143,3.7154,3.7162,3.7158,3.7018,0,0,0,0,0,3.6868,3.6904,3.6922,3.6976,3.6988,3.6995,3.7015,3.7011,3.7034,3.7043,3.7055,3.7077,3.7111,3.7133,3.7165,3.7231,3.7235,3.7261,3.727,3.7276,3.7283,3.7319,3.7331,3.7207,3.7207,3.7207,0,0,3.6899,3.6916,3.6939,3.6983,3.7,3.7038,3.7003,3.7044,3.7071,3.7049,3.7101,3.7111,3.7135,3.7196,3.7223,3.7206,3.7318,3.7283,3.7289,3.7291,3.7326,3.7337,3.7348,3.7211,3.721,3.7209,0,0,3.6974,3.6991,3.7038,3.7056,3.7082,3.7087,3.7098,3.7121,3.7127,3.718,3.7164,3.7197,3.7255,3.7273,3.729,3.7375,3.736,3.7385,3.7429,3.7464,3.7474,3.7483,3.7513,3.7523,3.7392,3.7392,3.7392,0,3.7008,3.7065,3.7063,3.7106,3.7126,3.7109,3.7156,3.7174,3.7209,3.7223,3.7204,3.7278,3.7293,3.7357,3.7378,3.7393,3.7405,3.7381,3.7473,3.7482,3.749,3.7518,3.7529,3.7395,3.7394,3.7394,3.7394,0,3.7106,3.7146,3.7181,3.7216,3.724,3.7285,3.729,3.7315,3.731,3.7316,3.7371,3.7389,3.7424,3.7439,3.7434,3.7504,3.7493,3.7474,3.7438,3.7504,3.7531,3.7542,3.7399,3.7398,3.7397,3.7396,0,0,3.7202,3.7238,3.7251,3.7267,3.7296,3.7326,3.7371,3.7407,3.7428,3.7453,3.749,3.7541,3.7524,3.7543,3.754,3.7571,3.7637,3.7548,3.7549,3.7564,3.7715,3.7728,3.7741,3.7628,3.763,3.7632,3.7713,0,3.7279,3.7357,3.7358,3.7429,3.7466,3.7452,3.749,3.7512,3.752,3.7552,3.756,3.7596,3.7571,3.7583,3.7613,3.7623,3.7667,3.7617,3.7662,3.7663,3.7655,3.7755,3.7769,3.7844,3.7723,3.7725,3.7726,0,3.7378,3.7408,3.7484,3.7509,3.7524,3.7559,3.7593,3.7624,3.7648,3.7652,3.7675,3.7667,3.7713,3.7678,3.774,3.7705,3.7724,3.7732,3.7735,3.7738,3.7698,3.776,3.7868,3.7879,3.7743,3.7741,3.774,0,3.744,3.75,3.7553,3.7568,3.7598,3.7623,3.7637,3.7659,3.7681,3.771,3.7725,3.7758,3.7777,3.7803,3.7805,3.7779,3.7868,3.7833,3.7871,3.7871,3.7889,3.7888,3.8001,3.7903,3.7903,3.7903,3.7903,0,3.7525,3.7572,3.7581,3.7614,3.7666,3.7667,3.7718,3.773,3.7751,3.7785,3.7775,3.7807,3.7809,3.7842,3.7844,3.7895,3.7904,3.7907,3.7907,3.7908,3.7907,3.7919,3.7913,3.7906,3.7905,3.7905,3.7904,0,3.7603,3.7611,3.7668,3.7693,3.77,3.7738,3.7759,3.779,3.7797,3.7841,3.7851,3.7863,3.7902,3.7907,3.7952,3.7954,3.8015,3.801,3.8007,3.8006,3.8044,3.804,3.8168,3.8184,3.8076,3.8077,3.8078,0,3.7656,3.7692,3.7721,3.7744,3.7759,3.7796,3.7819,3.7821,3.7845,3.7877,3.7905,3.7943,3.7973,3.8036,3.8048,3.8082,3.8077,3.812,3.8082,3.8082,3.8077,3.8075,3.8078,3.8127,3.8128,3.8129,3.813,0,3.7749,3.7752,3.7786,3.7821,3.7849,3.7877,3.7903,3.7922,3.7928,3.7956,3.7996,3.802,3.8067,3.8104,3.8139,3.8152,3.8142,3.8142,3.8152,3.8153,3.8149,3.8151,3.8026,3.8138,3.8137,3.8137,3.8136,3.8136,3.7816,3.7847,3.7873,3.7911,3.7932,3.7957,3.7988,3.8,3.8034,3.8073,3.8072,3.8116,3.8141,3.8187,3.8203,3.8237,3.8223,3.8239,3.8242,3.8246,3.825,3.8145,3.8244,3.8243,3.8243,3.8243,3.8243,0,3.7908,3.7925,3.796,3.7998,3.8028,3.8017,3.8046,3.8071,3.8111,3.8135,3.8166,3.8213,3.825,3.8266,3.8302,3.8326,3.8323,3.8336,3.8333,3.8337,3.826,3.8247,3.8338,3.8338,3.8338,3.8338,3.8338,3.8338,3.796,3.8013,3.8019,3.8082,3.8098,3.8142,3.8159,3.8183,3.8202,3.8255,3.8286,3.8297,3.8318,3.8356,3.839,3.8394,3.8407,3.8422,3.8424,3.8352,3.8342,3.8333,3.832,3.8425,3.8426,3.8497,3.8498,3.8498]},{"header":{"parameterUnit":"m.s-1","parameterCategory":1,"la1":30.2991,"la2":30.254,"lo1":-89.0895,"lo2":-89.0444,"dx":0.0017,"dy":0.0017,"nx":28,"ny":28,"refTime":"2022-12-23T15:00:00:Z","depth":0,"parameterNumber":3,"parameterNumberName":"V-component_of_WINDS"},"data":[0,0,0,0,0,0,0,0,0,0,0,0,0,0,0,0,0,0,0,0,0,0,0,0,0,0,0,0,0,0,0,0,0,0,0,0,0,0,0,0,0,0,0,0,0,0,0,0,0,0,0,0,0,0,0,0,0,0,-6.8849,-6.885,0,-6.8998,-6.9,-6.9001,-6.8942,-6.8938,-6.8935,-6.8931,-6.9083,-6.909,-6.9097,0,0,0,0,0,0,0,0,0,0,0,0,0,-6.8511,-6.8518,-6.8849,-6.8851,-6.8852,-6.8998,-6.9,-6.9002,-6.8942,-6.8938,-6.8934,-6.893,-6.908,-6.9089,-6.9098,0,0,0,0,0,0,0,0,0,0,0,0,0,-6.8659,-6.852,-6.8848,-6.884,-6.8841,-6.8997,-6.9,-6.9002,-6.8943,-6.8938,-6.8933,-6.8928,-6.9077,-6.9088,-6.9099,-6.9271,0,0,-6.9132,-6.9137,0,0,0,0,0,0,0,0,-6.8651,-6.8671,-6.884,-6.8841,-6.8842,-6.8946,-6.8936,-6.9092,-6.8945,-6.8904,-6.8931,-6.8925,-6.9041,-6.9055,-6.9094,-6.9278,-6.9285,-6.9133,-6.914,-6.9144,-6.9148,0,0,0,0,0,0,0,-6.8641,-6.8665,-6.8908,-6.8842,-6.8844,-6.8829,-6.8844,-6.8965,-6.9,-6.8908,-6.8904,-6.8922,-6.9041,-6.9084,-6.9097,-6.9287,-6.9133,-6.9143,-6.9149,-6.9154,-6.962,-6.9625,0,0,0,0,0,0,-6.863,-6.8657,-6.8903,-6.8912,-6.8732,-6.8839,-6.8856,-6.8918,-6.8999,-6.9006,-6.8926,-6.8919,-6.9068,-6.9085,-6.9102,-6.931,-6.9144,-6.9155,-6.9161,-6.9614,-6.9621,-6.9627,0,0,0,0,0,0,-6.8623,-6.8653,-6.8897,-6.8783,-6.8813,-6.8851,-6.892,-6.8924,-6.8966,-6.9013,-6.9019,-6.8964,-6.9064,-6.9087,-6.923,-6.9314,-6.916,-6.9169,-6.9607,-6.9616,-6.9624,-6.9726,0,0,0,0,0,0,-6.8614,-6.8651,-6.8717,-6.8785,-6.882,-6.9023,-6.8926,-6.893,-6.8986,-6.8977,-6.905,-6.9057,-6.9062,-6.9214,-6.9241,-6.9327,-6.9178,-6.96,-6.9611,-6.9621,-6.9715,-6.9737,-6.9756,0,0,0,0,0,-6.8602,-6.8739,-6.872,-6.875,-6.8903,-6.9027,-6.9047,-6.905,-6.8993,-6.9059,-6.9089,-6.9055,-6.9301,-6.9229,-6.9259,-6.9349,-6.9594,-6.9608,-6.9621,-6.9706,-6.9733,-6.9755,0,0,0,0,0,0,-6.8679,-6.8748,-6.8728,-6.8892,-6.8954,-6.9017,-6.9101,-6.9078,-6.9158,-6.9147,-6.9147,-6.9164,-6.9312,-6.9344,-6.9263,-6.952,-6.9439,-6.9458,-6.9494,-6.9519,-6.9539,-6.9528,-6.9187,0,0,0,0,0,-6.8715,-6.8811,-6.8865,-6.9004,-6.9037,-6.9064,-6.9118,-6.9116,-6.918,-6.9206,-6.9247,-6.931,-6.9402,-6.9462,-6.9549,-6.9719,-6.9734,-6.9796,-6.9816,-6.9833,-6.985,-6.9943,-6.9971,-6.967,-6.967,-6.967,0,0,-6.8791,-6.884,-6.89,-6.9021,-6.9069,-6.9168,-6.9087,-6.9194,-6.9268,-6.9222,-6.936,-6.9392,-6.9463,-6.962,-6.9692,-6.9652,-6.9936,-6.985,-6.9862,-6.9871,-6.9959,-6.9988,-7.0013,-6.9679,-6.9678,-6.9676,0,0,-6.8979,-6.9026,-6.9147,-6.9197,-6.9271,-6.9288,-6.9317,-6.9384,-6.9404,-6.9542,-6.951,-6.9597,-6.9755,-6.9807,-6.9854,-7.0062,-7.0033,-7.009,-7.0196,-7.0287,-7.031,-7.0331,-7.0406,-7.0433,-7.0107,-7.0107,-7.0107,0,-6.9063,-6.9211,-6.9212,-6.9323,-6.9377,-6.9341,-6.9464,-6.9512,-6.9611,-6.9649,-6.9603,-6.9801,-6.9846,-7.0015,-7.0066,-7.0105,-7.0138,-7.0082,-7.0307,-7.0328,-7.0348,-7.0419,-7.0447,-7.0114,-7.0113,-7.0112,-7.0112,0,-6.9311,-6.9415,-6.9503,-6.96,-6.9664,-6.978,-6.9799,-6.9863,-6.9855,-6.9877,-7.0018,-7.0071,-7.0168,-7.0208,-7.02,-7.0376,-7.0349,-7.0306,-7.0224,-7.0383,-7.045,-7.0477,-7.0123,-7.0121,-7.0119,-7.0117,0,0,-6.9553,-6.9649,-6.9681,-6.9725,-6.9804,-6.9884,-6.9998,-7.0093,-7.0149,-7.0218,-7.0314,-7.0448,-7.0409,-7.0462,-7.046,-7.054,-7.0701,-7.0486,-7.0488,-7.0525,-7.0899,-7.0932,-7.0963,-7.0682,-7.0688,-7.0692,-7.0893,0,-6.9748,-6.9949,-6.9953,-7.0137,-7.0233,-7.02,-7.0299,-7.0358,-7.0382,-7.0466,-7.0491,-7.0586,-7.0526,-7.0558,-7.0635,-7.0665,-7.0777,-7.0651,-7.0772,-7.0776,-7.0756,-7.0998,-7.1034,-7.1221,-7.0919,-7.0924,-7.0927,0,-7.0002,-7.008,-7.0274,-7.034,-7.038,-7.0469,-7.0557,-7.0638,-7.0704,-7.0715,-7.0776,-7.0762,-7.0878,-7.0792,-7.0952,-7.0867,-7.0916,-7.0939,-7.0946,-7.0958,-7.0862,-7.1017,-7.1281,-7.1309,-7.0968,-7.0965,-7.0962,0,-7.0159,-7.0312,-7.0448,-7.0487,-7.0566,-7.063,-7.0666,-7.0727,-7.0785,-7.0861,-7.0898,-7.0987,-7.1036,-7.1105,-7.1116,-7.1052,-7.1277,-7.1192,-7.129,-7.129,-7.1339,-7.1336,-7.1615,-7.137,-7.137,-7.1369,-7.1368,0,-7.0376,-7.0497,-7.052,-7.0604,-7.0738,-7.0741,-7.0873,-7.0904,-7.0959,-7.1048,-7.1024,-7.1108,-7.1116,-7.1203,-7.1212,-7.1343,-7.1365,-7.1378,-7.1379,-7.138,-7.1379,-7.1413,-7.1401,-7.1376,-7.1375,-7.1373,-7.1372,0,-7.0575,-7.0596,-7.0742,-7.0806,-7.0824,-7.092,-7.0974,-7.1054,-7.1075,-7.1188,-7.1215,-7.1247,-7.1348,-7.1365,-7.1483,-7.1489,-7.1646,-7.1634,-7.1625,-7.1623,-7.172,-7.1711,-7.2032,-7.2074,-7.1801,-7.1803,-7.1806,0,-7.0713,-7.0805,-7.0878,-7.0936,-7.0976,-7.107,-7.1128,-7.1135,-7.1196,-7.1279,-7.1349,-7.1447,-7.1526,-7.1688,-7.1722,-7.1812,-7.1802,-7.1908,-7.1815,-7.1814,-7.1804,-7.1799,-7.1808,-7.1926,-7.1929,-7.1931,-7.1933,0,-7.0955,-7.0961,-7.1046,-7.1136,-7.1206,-7.1277,-7.1343,-7.1392,-7.1407,-7.1478,-7.158,-7.1642,-7.1763,-7.186,-7.195,-7.1986,-7.1963,-7.1962,-7.199,-7.1993,-7.1984,-7.1991,-7.1674,-7.1955,-7.1953,-7.1951,-7.195,-7.1949,-7.1128,-7.1209,-7.1273,-7.1369,-7.142,-7.1483,-7.1561,-7.1592,-7.1678,-7.1777,-7.1775,-7.1888,-7.1952,-7.207,-7.2112,-7.22,-7.2166,-7.2206,-7.2216,-7.2226,-7.2236,-7.1969,-7.2217,-7.2216,-7.2215,-7.2215,-7.2215,0,-7.137,-7.141,-7.1498,-7.1592,-7.1668,-7.1639,-7.1711,-7.1776,-7.1876,-7.1937,-7.2016,-7.2134,-7.2229,-7.227,-7.2363,-7.2426,-7.2417,-7.245,-7.2446,-7.2455,-7.2261,-7.2228,-7.2455,-7.2455,-7.2455,-7.2455,-7.2455,-7.2455,-7.1505,-7.1639,-7.1653,-7.1812,-7.185,-7.1961,-7.2005,-7.2063,-7.2112,-7.2245,-7.2324,-7.235,-7.2404,-7.2501,-7.2586,-7.2596,-7.2632,-7.267,-7.2675,-7.2493,-7.2468,-7.2445,-7.2414,-7.2677,-7.2678,-7.2861,-7.2863,-7.2864]}]]